Fredericton, New Brunswick

9:20 AM ADT on June 29, 2017 (GMT -0300)
Greater Fredericton Airport

Weather History for CYFC - September, 2012

Change the Weather History Date:

Sunday, September 30, 2012

  Actual Average Record
Temperature  
Mean Temperature 60 °F -  
Max Temperature 66 °F 56 °F 75 °F (2010)
Min Temperature 54 °F 35 °F 28 °F (2016)
Degree Days  
Heating Degree Days 5    
Growing Degree Days 10 (Base 50)    
Moisture  
Dew Point 65 °F    
Average Humidity 100    
Maximum Humidity 100    
Minimum Humidity 100    
Precipitation  
Precipitation 0.51 in 0.12 in - ()
Sea Level Pressure  
Sea Level Pressure 29.75 in    
Wind  
Wind Speed 8 mph ()    
Max Wind Speed 21 mph    
Max Gust Speed 30 mph    
Visibility 5.5 miles    
Events Fog , Rain    
Averages and records for this station are not official NWS values.
T = Trace of Precipitation, MM = Missing Value Source: Averaged Metar Reports

Daily Weather History Graph

Daily Weather History Graph

Search for Another Location

Airport or City:

Trip Planner

Search our weather history database for the weather conditions in past years. The results will help you decide how hot, cold, wet, or windy it might be!

Date:

Astronomy

Sep. 30, 2012 Rise Set
Actual Time 7:23 AM ADT 7:07 PM ADT
Civil Twilight 6:54 AM ADT 7:36 PM ADT
Nautical Twilight 6:19 AM ADT 8:11 PM ADT
Astronomical Twilight 5:44 AM ADT 8:46 PM ADT
Moon 7:03 PM ADT (9/30) 7:55 AM ADT (9/30)
Length of Visible Light 12h 42m
Length of Day
11h 43m
Full, 100% of the Moon is Illuminated
Sep 30
Full
Oct 8
Last Quarter
Oct 15
New
Oct 22
First Quarter
Oct 29
Full

Hourly Weather History & Observations

Time (ADT) Temp. Dew Point Humidity Pressure Visibility Wind Dir Wind Speed Gust Speed Precip Events Conditions
12:00 AM 55.4 °F - N/A% 29.95 in 9.0 mi NNE 6.9 mph - N/A   Overcast
12:40 AM 55.4 °F - N/A% 29.95 in 9.0 mi North 6.9 mph - N/A Rain Light Rain
12:53 AM 55.4 °F - N/A% 29.94 in 9.0 mi North 5.8 mph - N/A   Overcast
12:55 AM 55.4 °F - N/A% 29.94 in 8.0 mi North 4.6 mph - N/A   Overcast
1:00 AM 55.4 °F - N/A% 29.94 in 7.0 mi North 5.8 mph - N/A   Overcast
1:08 AM 55.4 °F - N/A% 29.94 in 5.0 mi North 5.8 mph - N/A   Haze
1:53 AM 55.4 °F - N/A% 29.95 in 1.8 mi North 4.6 mph - N/A   Overcast
2:00 AM 55.4 °F - N/A% 29.95 in 1.5 mi NNE 4.6 mph - N/A   Overcast
3:00 AM 56 °F - % 29.95 in 1 mi North 3.5 mph - -  
3:00 AM 57.2 °F - N/A% 29.95 in 0.8 mi North 3.5 mph - N/A   Unknown
4:00 AM 55.4 °F - N/A% 29.95 in 0.5 mi NNW 3.5 mph - N/A Fog Fog
5:00 AM 57.2 °F - N/A% 29.95 in 0.8 mi North 3.5 mph - N/A   Unknown
6:00 AM 57.2 °F - N/A% 29.96 in 0.8 mi NNW 3.5 mph - N/A   Unknown
7:00 AM 57.2 °F - N/A% 29.96 in 1.5 mi North 3.5 mph - N/A   Overcast
7:10 AM 57.2 °F - N/A% 29.96 in 2.0 mi NNE 4.6 mph - N/A   Overcast
7:15 AM 57.2 °F - N/A% 29.95 in 3.0 mi NNE 4.6 mph - N/A   Overcast
7:42 AM 57.2 °F - N/A% 29.96 in 2.2 mi Variable 2.3 mph - N/A   Overcast
7:59 AM 57.2 °F - N/A% 29.95 in 1.8 mi NNW 3.5 mph - N/A   Overcast
8:00 AM 57.2 °F - N/A% 29.95 in 1.8 mi NNW 3.5 mph - N/A   Overcast
8:20 AM 57.2 °F - N/A% 29.94 in 0.4 mi NNE 4.6 mph - N/A Fog Fog
8:42 AM 59.0 °F - N/A% 29.94 in 0.5 mi NE 3.5 mph - N/A Fog Fog
8:52 AM 59.0 °F - N/A% 29.94 in 2.0 mi NE 4.6 mph - N/A   Overcast
8:56 AM 59.0 °F - N/A% 29.94 in 3.0 mi NE 4.6 mph - N/A   Overcast
9:00 AM 59 °F - % 29.94 in 3 mi NE 4.6 mph - -   Overcast
9:00 AM 59.0 °F - N/A% 29.94 in 3.0 mi NE 4.6 mph - N/A   Overcast
9:27 AM 59.0 °F - N/A% 29.95 in 6.0 mi NNE 5.8 mph - N/A   Haze
10:00 AM 59.0 °F - N/A% 29.95 in 9.0 mi NNE 4.6 mph - N/A   Overcast
10:13 AM 59.0 °F - N/A% 29.95 in 5.0 mi North 3.5 mph - N/A   Haze
10:19 AM 60.8 °F - N/A% 29.94 in 6.0 mi North 4.6 mph - N/A   Haze
11:00 AM 60.8 °F - N/A% 29.94 in 7.0 mi NNE 5.8 mph - N/A   Overcast
11:04 AM 60.8 °F - N/A% 29.94 in 5.0 mi NNE 5.8 mph - N/A   Haze
11:21 AM 60.8 °F - N/A% 29.93 in 6.0 mi NNE 6.9 mph - N/A   Haze
12:00 PM 62.6 °F - N/A% 29.91 in 9.0 mi NE 8.1 mph - N/A   Overcast
1:00 PM 64.4 °F - N/A% 29.88 in 9.0 mi ENE 9.2 mph - N/A   Overcast
2:00 PM 64.4 °F - N/A% 29.83 in 9.0 mi NE 9.2 mph - N/A   Overcast
2:29 PM 66.2 °F - N/A% 29.82 in 9.0 mi ENE 8.1 mph - N/A Rain Light Rain
2:35 PM 66.2 °F - N/A% 29.82 in 9.0 mi NE 9.2 mph - N/A Rain Light Rain
3:00 PM 66 °F - % 29.81 in 10 mi ENE 9.2 mph - -   Overcast
3:00 PM 66.2 °F - N/A% 29.81 in 9.0 mi ENE 10.4 mph - N/A Rain Light Rain
4:00 PM 66.2 °F - N/A% 29.76 in 9.0 mi NE 11.5 mph 17.3 mph N/A Rain Light Rain
4:24 PM 66.2 °F - N/A% 29.75 in 5.0 mi NE 15.0 mph - N/A Rain Rain
4:46 PM 66.2 °F - N/A% 29.73 in 7.0 mi NE 11.5 mph 23.0 mph N/A Rain Light Rain
5:00 PM 66.2 °F - N/A% 29.72 in 9.0 mi ENE 10.4 mph 19.6 mph N/A Rain Light Rain
5:16 PM 66.2 °F - N/A% 29.71 in 5.0 mi ENE 11.5 mph 19.6 mph N/A Rain Light Rain
5:18 PM 66.2 °F - N/A% 29.70 in 4.0 mi ENE 11.5 mph 19.6 mph N/A Rain Heavy Rain
5:22 PM 66.2 °F - N/A% 29.70 in 2.0 mi ENE 15.0 mph 21.9 mph N/A Rain Heavy Rain
5:23 PM 66.2 °F - N/A% 29.70 in 1.8 mi ENE 13.8 mph 21.9 mph N/A Rain Heavy Rain
5:28 PM 66.2 °F - N/A% 29.70 in 1.8 mi ENE 12.7 mph 21.9 mph N/A Rain Light Rain
5:31 PM 66.2 °F - N/A% 29.70 in 2.0 mi East 11.5 mph 18.4 mph N/A Rain Light Rain
5:40 PM 66.2 °F - N/A% 29.68 in 3.0 mi NE 13.8 mph 20.7 mph N/A Rain Light Rain
5:45 PM 66.2 °F - N/A% 29.68 in 6.0 mi ENE 16.1 mph - N/A Rain Light Rain
5:57 PM 66.2 °F 66.2 °F 100% 29.67 in 7.0 mi East 17.3 mph 24.2 mph N/A Rain Light Rain
5:58 PM 66.2 °F 66.2 °F 100% 29.67 in 7.0 mi East 18.4 mph - N/A Rain Light Rain
6:00 PM 66.2 °F 66.2 °F 100% 29.67 in 7.0 mi East 19.6 mph - N/A Rain Light Rain
6:01 PM 66.2 °F 66.2 °F 100% 29.67 in 7.0 mi ENE 19.6 mph - N/A Rain Light Rain
6:11 PM 66.2 °F - N/A% 29.65 in 5.0 mi ENE 16.1 mph 23.0 mph N/A Rain Rain
6:16 PM 66.2 °F - N/A% 29.65 in 4.0 mi ENE 17.3 mph 24.2 mph N/A Rain Rain
6:18 PM 66.2 °F - N/A% 29.65 in 4.0 mi ENE 16.1 mph 24.2 mph N/A Rain Rain
6:46 PM 66.2 °F - N/A% 29.63 in 3.0 mi NE 16.1 mph 24.2 mph N/A Rain Rain
6:48 PM 66.2 °F - N/A% 29.63 in 2.5 mi ENE 15.0 mph 24.2 mph N/A Rain Rain
7:00 PM 66.2 °F - N/A% 29.61 in 2.5 mi ENE 12.7 mph 25.3 mph N/A Rain Rain
7:21 PM 66.2 °F - N/A% 29.60 in 3.0 mi ENE 17.3 mph 24.2 mph N/A Rain Light Rain
7:35 PM 66.2 °F - N/A% 29.60 in 6.0 mi East 16.1 mph - N/A Rain Light Rain
7:56 PM 66.2 °F - N/A% 29.59 in 7.0 mi East 20.7 mph 29.9 mph N/A Rain Light Rain
7:58 PM 66.2 °F - N/A% 29.60 in 6.0 mi East 17.3 mph 29.9 mph N/A Rain Light Rain
7:59 PM 66.2 °F - N/A% 29.60 in 5.0 mi East 15.0 mph 29.9 mph N/A Rain Light Rain
8:00 PM 66.2 °F - N/A% 29.59 in 5.0 mi East 15.0 mph 26.5 mph N/A Rain Light Rain
8:04 PM 66.2 °F - N/A% 29.59 in 3.0 mi ENE 20.7 mph 27.6 mph N/A Rain Light Rain
8:06 PM 66.2 °F - N/A% 29.59 in 2.5 mi ENE 20.7 mph 27.6 mph N/A Rain Light Rain
8:15 PM 66.2 °F - N/A% 29.59 in 3.0 mi ENE 18.4 mph 26.5 mph N/A Rain Light Rain
8:37 PM 66.2 °F - N/A% 29.59 in 6.0 mi East 12.7 mph 19.6 mph N/A Rain Light Rain
8:46 PM 66.2 °F - N/A% 29.60 in 9.0 mi ESE 11.5 mph 18.4 mph N/A Rain Light Rain
8:51 PM 66.2 °F - N/A% 29.59 in 9.0 mi East 11.5 mph - N/A Rain Light Rain
8:54 PM 66.2 °F - N/A% 29.59 in 9.0 mi East 11.5 mph - N/A Rain Light Rain
9:00 PM 65 °F - % 29.60 in 9 mi East 10.4 mph - -   Overcast
9:00 PM 66.2 °F - N/A% 29.59 in 9.0 mi ESE 10.4 mph - N/A Rain Light Rain
9:03 PM 66.2 °F - N/A% 29.59 in 9.0 mi ESE 10.4 mph - N/A Rain Light Rain
9:21 PM 66.2 °F - N/A% 29.60 in 9.0 mi SSE 9.2 mph 18.4 mph N/A   Overcast
9:46 PM 64.4 °F 64.4 °F 100% 29.61 in 9.0 mi SSE 13.8 mph 21.9 mph N/A   Overcast
9:47 PM 64.4 °F 64.4 °F 100% 29.61 in 9.0 mi SSE 12.7 mph 21.9 mph N/A   Overcast
9:49 PM 64.4 °F 64.4 °F 100% 29.61 in 9.0 mi SSE 13.8 mph 21.9 mph N/A   Overcast
9:52 PM 64.4 °F 64.4 °F 100% 29.62 in 9.0 mi SSE 11.5 mph 21.9 mph N/A   Overcast
9:53 PM 64.4 °F 64.4 °F 100% 29.62 in 9.0 mi SSE 12.7 mph 21.9 mph N/A   Overcast
10:00 PM 64.4 °F - N/A% 29.62 in 9.0 mi South 11.5 mph 17.3 mph N/A   Overcast
10:15 PM 62.6 °F - N/A% 29.62 in 5.0 mi South 11.5 mph 17.3 mph N/A   Overcast
10:16 PM 62.6 °F - N/A% 29.62 in 4.0 mi South 10.4 mph 17.3 mph N/A   Overcast
10:21 PM 62.6 °F - N/A% 29.62 in 2.5 mi South 11.5 mph 19.6 mph N/A   Overcast
10:23 PM 62.6 °F - N/A% 29.62 in 2.5 mi South 10.4 mph 19.6 mph N/A   Overcast
10:24 PM 62.6 °F - N/A% 29.62 in 2.5 mi South 12.7 mph 19.6 mph N/A   Overcast
10:26 PM 62.6 °F - N/A% 29.62 in 3.0 mi South 10.4 mph 19.6 mph N/A   Overcast
10:32 PM 62.6 °F - N/A% 29.62 in 7.0 mi South 9.2 mph - N/A   Overcast
10:39 PM 62.6 °F - N/A% 29.63 in 9.0 mi South 9.2 mph - N/A   Overcast
10:40 PM 62.6 °F - N/A% 29.62 in 9.0 mi South 9.2 mph - N/A   Overcast
10:43 PM 62.6 °F - N/A% 29.62 in 9.0 mi South 9.2 mph - N/A   Overcast
11:00 PM 62.6 °F - N/A% 29.62 in 9.0 mi SSE 10.4 mph - N/A   Overcast
11:32 PM 60.8 °F - N/A% 29.62 in 9.0 mi South 11.5 mph 17.3 mph N/A   Overcast
11:34 PM 60.8 °F - N/A% 29.62 in 9.0 mi South 11.5 mph 17.3 mph N/A   Overcast